Wetbulb
55.71 55.91 55.99 56.28 56.29 56.12 55.99 55.83 55.70 55.84 56.00 56.31 56.49 56.35 56.34 56.42 56.40 50.86 46.09 53.01 55.62 63.93 66.88 65.12 61.84 60.21 57.63 55.06 56.25 53.98 45.29 43.05 45.16 45.74 48.01 51.01 49.04 53.73 54.79 51.94 53.04 53.43 54.67 56.87 58.18
54.50 54.63 54.71 55.14 55.69 56.47 56.11 55.85 55.88 55.63 55.73 55.95 55.77 55.81 56.14 56.49 52.01 48.44 55.91 61.89 63.40 65.75 60.37 59.97 57.57 57.35 53.00 53.43 53.64 50.96 45.01 46.15 50.91 50.57 48.91 51.36 51.78 53.92 51.98 52.61 50.56 52.67 56.35 58.34 57.54
53.54 54.08 54.15 54.22 54.28 54.69 54.93 55.50 56.03 55.90 55.70 55.68 55.53 55.57 56.10 55.48 46.57 45.45 62.69 62.70 62.38 65.56 56.82 59.85 58.82 56.51 51.37 51.73 52.55 50.62 47.85 52.08 52.36 53.60 52.72 51.80 52.86 55.90 52.58 51.24 53.30 51.59 52.98 55.42 55.17
52.45 52.42 52.86 53.51 53.76 53.72 53.63 54.21 55.15 55.95 55.81 55.56 55.40 55.58 56.29 51.86 35.93 46.78 66.48 67.81 67.02 61.92 54.78 53.73 55.23 51.68 49.17 49.20 53.46 47.42 52.29 53.84 53.77 55.02 53.15 52.58 55.15 53.43 53.94 53.62 56.21 55.22 55.36 55.31 53.96
53.48 53.43 52.61 51.97 52.28 53.14 53.56 53.52 53.93 54.45 55.12 55.26 55.31 55.52 51.58 46.25 42.47 49.40 65.28 64.93 62.93 58.26 52.84 50.19 48.37 50.35 48.02 49.82 50.94 49.01 51.69 53.67 54.66 54.12 54.45 55.02 52.92 52.94 53.74 56.33 57.19 54.29 55.49 55.27 54.96
53.84 53.77 53.48 53.23 52.72 51.90 53.01 53.80 53.68 53.74 53.93 54.56 54.99 55.53 48.59 37.25 48.92 52.41 51.44 50.56 50.94 55.22 54.12 50.52 49.13 49.95 45.65 47.48 47.31 51.21 51.90 52.79 53.94 54.17 54.44 52.86 53.27 54.25 55.15 57.01 55.66 53.55 53.51 54.75 55.31
54.11 54.13 53.84 53.72 53.40 53.06 52.61 52.60 53.28 53.70 53.38 53.82 54.59 52.10 46.96 44.14 50.11 50.47 48.78 47.96 49.54 52.21 52.88 54.29 52.98 50.16 47.59 44.56 47.46 48.02 45.11 48.18 50.43 52.31 51.92 53.06 49.48 50.20 53.88 54.15 52.85 53.02 52.06 53.53 54.98
53.62 53.66 53.39 53.43 54.09 53.64 53.44 52.91 52.35 51.97 53.10 53.75 54.35 50.86 43.02 51.79 52.94 50.75 50.77 47.38 48.14 49.23 52.13 53.43 54.93 50.06 45.75 46.30 46.34 43.13 42.15 39.75 47.23 50.18 51.99 49.21 44.74 50.95 53.46 52.16 51.77 52.62 52.12 51.89 53.05
53.43 53.20 52.89 52.77 52.98 53.76 53.84 53.12 52.54 51.94 52.50 53.24 48.81 47.27 40.94 51.94 48.23 50.74 49.50 45.80 46.57 47.01 48.78 52.96 50.87 46.43 45.15 42.78 39.08 39.15 38.00 39.32 43.78 48.81 48.19 46.85 44.87 51.08 52.72 51.21 50.53 51.50 51.97 50.83 51.51
53.02 52.98 53.02 52.48 52.81 53.39 53.37 52.63 51.70 51.14 50.12 50.58 49.58 43.60 44.98 43.10 47.13 48.99 48.50 48.33 46.95 46.17 46.31 46.39 45.59 41.62 39.26 38.34 33.79 36.56 36.79 41.20 41.59 45.49 46.67 45.85 45.67 50.20 52.28 51.59 50.40 51.66 52.70 51.52 51.96
52.44 52.62 52.60 52.64 52.85 52.84 51.03 43.77 39.22 43.46 45.78 41.88 41.78 40.98 45.75 49.41 51.45 49.42 48.61 45.80 47.90 45.52 39.69 44.90 40.83 38.93 41.89 43.10 43.00 42.30 40.40 40.10 43.60 47.02 45.91 44.72 45.30 48.57 51.01 49.54 50.24 51.01 51.74 50.76 51.31
52.33 52.04 52.14 52.44 52.48 52.99 47.57 40.02 43.13 45.36 38.12 44.45 44.34 45.70 48.25 49.71 43.44 47.06 49.36 43.20 42.81 38.29 42.44 41.84 38.63 44.97 46.50 45.10 42.81 42.12 40.11 40.52 44.76 47.31 44.90 44.59 44.49 47.80 49.19 49.51 50.45 51.44 50.27 49.61 49.68
52.45 52.05 52.06 52.15 52.54 46.41 41.53 43.37 49.00 47.75 38.48 40.70 44.01 43.20 43.97 46.75 43.51 44.34 47.93 45.75 40.55 38.70 39.77 38.07 41.61 47.73 46.85 43.92 42.69 41.65 40.01 40.99 41.62 45.51 46.14 44.54 42.69 45.66 49.11 49.49 50.49 50.14 49.56 49.94 50.80
52.19 52.25 52.16 52.19 45.49 41.99 41.57 46.25 47.03 46.30 30.99 33.45 40.49 43.24 45.63 45.55 41.18 48.85 49.62 46.96 43.09 37.41 40.69 39.86 44.23 44.39 44.25 42.29 43.08 38.94 45.28 44.62 43.20 40.96 37.16 43.69 33.46 41.50 45.01 46.98 48.00 49.07 48.57 49.73 50.35
52.11 51.70 52.02 51.52 45.92 42.99 43.80 46.15 48.57 45.15 15.33 36.59 39.72 48.71 46.87 42.03 44.28 43.78 49.62 46.72 41.92 39.89 40.02 38.38 41.32 41.15 41.36 42.33 44.87 41.99 46.53 44.71 43.59 40.38 38.02 41.20 35.80 39.56 43.30 44.65 46.22 47.93 47.99 48.01 49.57
51.80 51.59 51.42 47.07 45.72 45.80 47.18 46.39 44.32 32.66 19.44 33.96 40.73 38.73 39.29 42.54 43.21 46.48 45.36 47.18 46.80 42.15 41.17 40.07 45.71 43.97 43.36 46.51 46.46 46.18 42.82 41.90 40.83 38.05 32.59 39.76 37.38 38.94 41.46 44.28 46.14 48.00 48.97 49.26 49.05
51.58 51.12 49.64 48.61 41.22 44.45 45.71 41.39 27.85 24.44 35.85 33.16 33.97 37.57 37.27 37.08 40.01 41.91 41.61 39.35 38.28 34.44 35.49 39.07 40.43 43.75 44.95 42.06 43.55 42.58 37.55 30.07 26.53 29.45 30.61 40.17 36.98 41.15 45.21 47.20 48.29 48.71 48.24 48.40 49.69
51.22 50.45 48.71 47.85 46.12 46.24 41.79 34.69 22.87 30.41 31.42 37.64 35.94 37.48 34.37 36.54 36.08 40.00 39.52 36.86 41.48 40.38 37.05 34.35 32.64 40.71 44.64 42.20 39.65 40.28 39.90 32.07 26.58 27.47 32.06 40.22 36.09 41.56 47.09 49.48 49.73 49.79 48.44 49.20 49.48
49.40 44.00 42.85 44.02 47.25 44.63 38.07 26.92 25.10 30.29 35.04 33.59 34.68 32.41 32.32 35.16 35.17 35.55 38.37 38.23 40.46 41.68 35.29 34.88 35.48 43.79 44.43 44.76 43.54 39.51 37.03 42.21 34.74 35.44 32.64 35.81 40.38 45.28 46.90 47.03 48.40 48.19 49.06 48.20 49.50
44.68 42.79 39.53 44.55 46.59 44.84 35.00 25.66 30.14 36.27 35.74 35.20 28.84 33.46 28.30 31.29 32.33 33.05 35.25 39.80 41.24 43.28 41.44 38.10 33.09 41.91 43.73 44.76 43.81 39.84 41.80 33.77 31.92 26.60 25.87 33.80 36.18 38.49 42.86 45.20 47.62 47.77 47.38 47.87 49.65
38.71 36.56 41.14 48.39 45.68 39.76 28.01 28.65 32.21 37.12 37.27 33.67 31.38 30.14 31.67 31.44 32.83 32.23 34.57 39.74 41.44 39.78 41.73 37.70 36.06 37.75 42.15 39.67 38.78 36.73 38.10 35.76 37.42 35.05 29.18 27.32 33.98 42.68 44.58 46.07 47.48 47.67 48.16 48.58 50.10
36.07 28.86 43.03 47.64 35.86 33.47 29.72 32.85 37.17 35.57 38.16 35.87 35.76 34.11 32.90 34.27 32.62 31.27 32.89 37.61 42.93 40.94 36.45 39.04 35.35 33.93 37.25 41.47 44.51 42.42 39.50 39.24 34.54 31.96 34.03 34.53 37.77 45.86 45.01 45.92 48.64 48.33 49.16 48.80 50.63
35.09 32.66 42.03 45.30 30.44 29.44 33.06 33.66 35.74 34.37 34.85 34.56 34.18 35.59 36.93 33.29 30.59 33.65 35.47 40.80 42.53 39.28 36.26 38.28 33.96 29.07 32.86 37.66 40.42 38.90 40.49 40.20 38.32 36.30 34.38 32.89 37.05 46.45 46.50 45.60 49.74 48.28 48.99 50.02 50.45
36.45 28.43 34.79 38.12 36.71 33.58 31.20 31.24 31.41 37.34 35.11 35.27 34.07 35.93 34.36 33.39 36.14 33.18 33.83 38.26 41.10 39.96 44.69 39.72 34.44 34.65 31.87 34.99 39.20 37.06 39.69 40.38 39.69 35.70 36.54 37.86 38.38 43.13 45.72 46.38 48.24 48.63 49.19 49.92 51.36
33.23 29.50 35.91 28.96 29.41 31.26 29.80 31.40 30.08 30.39 34.92 35.10 31.90 33.98 33.08 29.58 32.45 33.16 36.47 37.54 39.68 41.49 39.62 34.62 29.18 36.75 39.56 40.67 40.98 40.70 40.65 40.69 39.33 40.49 37.73 40.42 40.06 43.15 47.03 47.93 50.00 49.89 49.09 50.02 50.74
32.01 35.00 37.92 34.23 34.58 30.79 30.00 29.99 31.46 33.54 34.22 31.84 32.09 34.37 34.72 31.59 33.71 31.70 35.06 36.04 34.36 37.26 35.87 34.37 28.34 35.49 37.22 40.70 40.61 39.01 41.17 41.70 42.44 42.24 42.03 41.51 41.13 45.33 48.83 50.67 50.42 50.43 50.41 50.71 51.48
41.62 41.13 37.37 33.96 32.14 26.51 27.16 32.13 31.80 34.90 36.95 37.37 35.78 33.79 32.39 35.16 38.32 38.90 40.13 39.80 38.67 35.81 34.27 32.12 31.43 30.82 31.26 39.97 38.65 34.74 39.76 41.08 42.39 44.28 44.00 39.40 42.71 45.48 46.57 51.04 51.27 50.12 51.36 51.63 52.45
MSLP
1019.48 1019.13 1018.75 1018.50 1018.55 1018.29 1017.66 1017.45 1017.21 1016.88 1016.21 1015.96 1015.84 1015.15 1014.71 1014.33 1013.42 1012.53 1011.54 1009.39 1009.19 1009.49 1009.59 1010.58 1010.84 1010.66 1010.88 1011.08 1011.39 1011.74 1012.49 1012.14 1010.96 1010.11 1008.46 1007.23 1007.19 1005.82 1005.75 1005.41 1005.02 1004.78 1004.68 1004.50 1004.91
1019.43 1019.24 1019.11 1018.85 1018.40 1018.02 1017.66 1017.34 1017.18 1016.64 1016.18 1015.98 1015.76 1015.29 1014.91 1014.42 1013.34 1011.59 1008.78 1008.47 1008.11 1009.04 1009.57 1010.19 1010.39 1010.90 1011.16 1010.98 1011.13 1011.38 1011.58 1010.37 1008.54 1008.45 1007.93 1007.27 1006.81 1006.10 1005.83 1005.29 1005.06 1004.74 1004.26 1004.44 1004.74
1019.25 1018.83 1018.50 1018.18 1017.98 1017.75 1017.50 1017.20 1016.87 1016.47 1016.21 1016.14 1015.78 1015.12 1014.75 1014.29 1012.91 1008.94 1007.02 1007.05 1007.52 1008.54 1009.11 1009.50 1009.73 1010.55 1010.90 1010.75 1010.40 1010.31 1010.00 1008.24 1008.16 1007.35 1007.59 1007.32 1006.63 1005.68 1005.70 1005.13 1004.63 1004.60 1004.30 1004.87 1005.15
1019.31 1018.89 1018.52 1018.09 1017.78 1017.57 1017.33 1017.13 1016.68 1016.25 1016.00 1015.73 1015.35 1015.15 1014.79 1014.45 1011.84 1007.21 1007.03 1007.30 1007.38 1008.18 1008.94 1009.04 1009.76 1010.29 1010.34 1010.02 1009.08 1009.47 1008.97 1008.41 1007.10 1007.12 1007.53 1007.10 1006.34 1005.73 1005.10 1004.57 1003.95 1003.87 1004.08 1004.24 1005.11
1019.41 1019.03 1018.60 1018.22 1017.91 1017.51 1017.13 1016.74 1016.51 1016.22 1015.98 1015.65 1015.51 1015.36 1014.96 1013.78 1010.00 1006.78 1007.04 1007.34 1007.81 1008.11 1007.82 1008.60 1009.39 1009.47 1009.43 1008.75 1009.14 1008.92 1007.81 1007.51 1007.38 1007.26 1006.89 1006.60 1005.92 1005.01 1004.35 1003.64 1003.45 1003.53 1003.82 1003.92 1004.27
1019.21 1018.82 1018.40 1018.01 1017.63 1017.20 1016.74 1016.33 1015.99 1015.79 1015.59 1015.55 1015.40 1015.20 1015.01 1012.54 1008.56 1007.56 1006.90 1007.46 1007.74 1007.77 1007.83 1008.42 1008.27 1008.37 1008.76 1008.34 1008.68 1007.77 1007.82 1007.40 1007.18 1006.95 1006.41 1005.85 1005.15 1004.68 1003.39 1003.40 1003.22 1003.20 1003.47 1003.34 1003.67
1018.94 1018.56 1018.20 1017.86 1017.47 1017.03 1016.60 1016.19 1015.76 1015.50 1015.28 1014.96 1014.83 1014.68 1013.47 1008.84 1008.63 1007.87 1007.70 1007.14 1007.11 1007.34 1007.56 1007.53 1007.77 1008.15 1008.03 1008.37 1007.89 1007.82 1007.69 1007.00 1006.42 1006.39 1005.46 1005.47 1004.71 1003.70 1002.96 1003.07 1002.89 1002.70 1002.83 1002.82 1002.70
1018.76 1018.35 1017.92 1017.44 1016.97 1016.55 1016.10 1015.65 1015.35 1015.02 1014.73 1014.62 1014.48 1014.25 1011.02 1009.00 1008.93 1008.06 1007.66 1006.92 1007.06 1007.12 1007.03 1006.88 1007.38 1007.73 1007.93 1008.12 1007.89 1008.01 1007.73 1007.05 1005.69 1005.55 1004.40 1005.51 1003.37 1002.95 1002.42 1002.73 1002.44 1002.11 1002.02 1002.29 1002.28
1018.60 1018.16 1017.78 1017.36 1016.84 1016.18 1015.58 1015.10 1014.47 1013.85 1013.97 1014.28 1014.45 1014.19 1010.53 1008.54 1007.50 1005.78 1006.31 1006.29 1006.15 1006.62 1006.80 1006.77 1007.31 1007.72 1008.04 1008.75 1008.95 1008.40 1007.58 1006.81 1005.60 1004.97 1005.03 1004.69 1003.42 1001.60 1001.91 1002.25 1001.87 1001.70 1001.47 1001.60 1001.76
1018.43 1017.92 1017.45 1017.04 1016.55 1016.02 1015.46 1014.65 1013.02 1012.98 1013.13 1013.89 1013.76 1013.63 1009.97 1006.66 1005.19 1004.42 1004.72 1005.57 1005.85 1005.88 1006.60 1006.78 1007.22 1007.30 1007.54 1008.06 1006.99 1007.68 1007.24 1006.55 1005.15 1004.46 1004.73 1004.17 1003.58 1002.03 1001.37 1001.59 1001.35 1001.14 1000.78 1000.98 1001.19
1018.17 1017.70 1017.23 1016.75 1016.20 1015.71 1015.41 1014.97 1013.50 1013.23 1013.04 1011.91 1011.18 1009.10 1006.42 1006.02 1004.22 1004.02 1004.19 1005.02 1005.70 1005.48 1005.68 1006.02 1006.58 1004.82 1005.87 1006.13 1006.46 1006.35 1006.51 1005.87 1004.25 1004.54 1004.47 1003.91 1003.41 1002.33 1001.13 1001.38 1001.02 1000.49 1000.39 1000.41 1000.54
1017.95 1017.37 1016.87 1016.45 1016.03 1015.55 1015.74 1015.62 1014.39 1014.10 1012.21 1010.95 1009.82 1009.13 1007.45 1007.56 1006.83 1003.85 1003.38 1004.25 1004.77 1004.13 1005.09 1005.37 1002.69 1004.33 1005.11 1005.56 1005.93 1005.77 1005.97 1005.19 1004.48 1003.99 1004.55 1003.66 1003.01 1002.11 1000.91 1000.69 1000.33 999.80 999.86 1000.15 1001.13
1017.57 1017.10 1016.58 1015.96 1015.53 1015.54 1015.65 1014.95 1013.98 1014.00 1012.82 1008.80 1007.37 1006.35 1006.07 1006.27 1005.69 1003.42 1002.89 1002.83 1003.17 1003.74 1003.30 1002.64 1001.53 1003.78 1004.32 1004.51 1004.91 1005.07 1005.05 1004.78 1004.66 1004.45 1004.31 1003.70 1002.91 1001.97 1000.29 1000.15 999.40 999.13 999.45 999.98 1000.46
1017.18 1016.68 1016.29 1015.78 1015.44 1015.57 1015.00 1013.98 1013.98 1013.78 1012.59 1007.80 1005.69 1004.02 1003.92 1003.79 1003.11 1001.85 1001.71 1001.95 1002.32 1002.42 1003.05 1002.58 1002.36 1002.13 1002.91 1003.06 1003.79 1003.93 1004.01 1004.69 1004.73 1005.13 1004.74 1003.91 1003.53 1001.93 1000.96 1000.33 999.80 999.04 999.20 999.43 1000.11
1016.96 1016.35 1015.92 1015.71 1015.64 1015.32 1014.32 1013.96 1013.36 1013.15 1011.31 1005.59 1003.83 1002.58 1002.91 1003.07 1001.60 1000.22 1001.08 1001.20 1001.23 1001.71 1002.26 1000.07 1001.26 1001.60 1001.56 1001.14 1003.00 1002.71 1004.20 1004.66 1005.04 1005.19 1005.06 1004.12 1004.60 1001.76 1001.20 1000.52 999.79 999.25 998.96 999.47 1000.01
1016.42 1015.77 1015.53 1015.37 1015.25 1014.49 1014.29 1013.96 1013.54 1013.11 1009.55 1005.45 1003.69 1003.57 1003.33 1002.45 1001.77 1000.25 999.95 1000.75 1000.78 1001.25 1000.80 1000.54 1000.17 1000.39 1000.21 1001.60 1002.47 1003.23 1004.23 1004.77 1005.25 1005.71 1005.29 1003.79 1004.28 1000.89 1000.77 999.62 998.98 998.78 998.82 999.68 1000.81
1015.68 1015.29 1015.31 1015.19 1014.51 1014.18 1014.22 1013.99 1013.55 1011.34 1007.92 1006.20 1005.26 1004.37 1003.15 1002.12 1001.41 1000.80 1000.61 1000.05 999.71 1000.71 1000.30 1000.50 999.94 999.75 1000.02 1001.34 1002.22 1003.16 1004.34 1005.69 1005.56 1005.72 1004.66 1003.32 1003.37 1000.86 999.03 998.54 998.64 998.75 999.14 1000.25 1001.28
1015.20 1014.75 1014.29 1014.11 1013.91 1014.16 1014.38 1014.24 1012.85 1010.07 1008.68 1007.35 1006.70 1004.95 1004.33 1003.97 1002.49 1001.28 1000.53 999.86 999.20 998.87 999.57 999.78 999.65 998.77 998.68 999.15 1000.44 1001.56 1003.04 1004.10 1004.84 1004.76 1003.97 1002.80 1001.89 999.02 998.16 997.59 997.66 998.34 999.16 1000.27 1001.51
1014.86 1014.71 1014.48 1013.53 1013.59 1014.25 1014.41 1013.80 1011.91 1010.35 1009.35 1008.68 1007.42 1006.21 1005.74 1005.59 1005.43 1003.29 1000.88 1000.70 999.77 999.22 999.51 999.69 998.57 997.58 997.74 998.52 999.46 1000.20 1000.88 1002.64 1003.82 1004.00 1003.56 1002.26 1000.32 998.57 997.97 997.65 997.95 998.53 999.39 1000.47 1001.48
1015.23 1014.95 1014.36 1013.49 1013.66 1014.12 1014.39 1013.42 1011.90 1010.68 1010.16 1009.42 1008.69 1007.73 1007.33 1007.07 1006.77 1005.22 1002.89 1002.70 1000.36 999.80 999.51 999.42 999.10 998.05 997.84 998.58 998.68 998.90 1000.29 1002.40 1003.44 1003.70 1003.22 1001.79 1000.55 998.98 997.89 998.02 998.58 998.96 999.87 1000.87 1001.81
1015.55 1015.28 1014.01 1013.47 1013.68 1014.22 1014.19 1013.33 1012.08 1011.04 1010.54 1010.03 1009.44 1008.80 1007.93 1007.35 1007.44 1006.49 1004.42 1003.40 1002.34 1001.84 1000.85 1000.17 999.43 998.14 997.43 996.48 997.18 998.98 999.62 1000.21 1001.44 1002.12 1002.01 1001.53 999.66 998.01 997.60 997.76 998.42 999.16 999.67 1000.61 1001.61
1016.09 1015.76 1014.41 1013.98 1014.27 1014.30 1014.18 1013.29 1012.38 1011.13 1010.47 1010.14 1009.41 1008.88 1008.08 1007.44 1007.19 1007.36 1005.79 1004.99 1004.58 1004.25 1003.13 1001.52 999.85 998.78 997.47 996.51 996.44 997.39 998.22 999.19 999.89 1000.67 1000.69 1000.48 998.21 996.91 996.82 997.07 997.87 998.91 999.60 1000.50 1001.52
1016.61 1016.09 1014.60 1014.41 1014.62 1014.83 1014.26 1013.31 1012.33 1011.24 1010.39 1009.82 1009.12 1008.64 1008.04 1007.76 1007.38 1007.00 1006.29 1005.41 1005.03 1004.87 1004.71 1003.07 1000.76 999.80 998.43 997.32 996.48 996.22 996.43 997.68 998.90 999.54 999.80 999.71 997.64 996.76 996.96 997.21 997.63 998.68 999.59 1000.46 1001.45
1017.18 1016.78 1015.56 1015.06 1015.21 1015.14 1014.49 1013.22 1012.26 1010.96 1010.32 1009.78 1009.24 1008.42 1008.07 1007.38 1006.81 1006.32 1005.99 1005.56 1005.47 1005.54 1005.06 1004.22 1002.55 999.74 997.13 996.11 995.63 995.67 995.99 996.66 997.61 998.50 998.17 997.71 997.27 996.86 996.75 997.09 997.75 998.58 999.43 1000.15 1000.81
1017.45 1017.30 1016.76 1015.94 1015.57 1015.33 1014.72 1013.36 1012.29 1011.38 1010.45 1009.76 1009.27 1008.89 1008.40 1007.92 1007.22 1006.37 1006.08 1005.75 1005.56 1006.08 1005.61 1005.16 1003.55 1000.89 998.40 997.07 995.68 994.91 994.87 995.49 995.72 996.10 996.93 996.44 996.82 996.23 996.16 996.64 997.00 997.94 999.46 1000.13 1000.70
1017.63 1017.31 1016.75 1016.21 1015.66 1015.23 1014.33 1013.35 1012.60 1011.66 1011.03 1009.93 1009.48 1009.01 1008.49 1007.96 1007.58 1006.98 1006.58 1006.01 1006.13 1006.34 1006.28 1005.80 1004.23 1001.85 998.52 997.01 995.98 995.27 994.69 994.38 994.80 995.31 995.70 995.66 995.73 994.84 994.88 996.20 997.36 997.86 998.56 999.24 999.82
1017.10 1016.88 1016.81 1015.97 1015.59 1015.40 1014.36 1013.40 1012.61 1012.06 1010.81 1010.24 1009.54 1008.79 1007.99 1007.46 1007.24 1006.64 1005.95 1006.00 1005.66 1006.02 1006.37 1006.32 1005.15 1003.35 999.19 997.20 996.61 995.70 993.51 994.15 994.22 994.15 994.31 994.85 994.59 994.62 995.25 995.75 996.45 997.17 997.72 998.10 998.82
Wind_Speed
16 16 15 15 13 12 13 13 15 16 16 18 18 18 19 19 17 2 8 10 10 8 9 7 3 3 4 5 5 4 3 7 8 8 9 3 4 4 5 4 5 7 7 6 8
18 17 17 16 16 14 14 15 15 15 15 16 18 18 18 18 4 8 10 11 18 13 6 9 8 5 3 5 5 6 6 11 11 7 7 8 8 16 5 11 6 7 6 1 16
18 19 19 18 18 17 17 17 16 16 15 15 15 17 18 14 6 10 9 19 19 16 9 6 7 8 5 4 7 7 14 22 15 15 5 7 15 17 12 17 13 12 7 5 6
18 18 18 18 19 19 19 19 19 17 16 16 15 15 17 3 11 3 9 3 13 16 10 7 5 8 8 12 10 4 12 19 25 18 6 12 14 17 19 17 18 15 5 10 9
16 17 18 19 19 19 19 19 19 17 16 15 14 13 7 5 11 14 8 5 8 12 13 13 7 7 9 5 5 7 20 18 14 11 14 17 20 22 22 22 19 9 8 14 16
17 17 17 18 19 19 19 18 17 17 16 15 13 11 3 15 7 16 19 7 9 3 8 10 10 8 4 10 9 6 9 18 15 19 18 21 23 19 25 17 18 10 12 13 17
18 18 18 18 18 19 19 19 18 18 18 16 16 11 15 26 7 8 9 4 3 12 8 13 10 9 7 6 6 6 12 16 19 21 20 9 20 22 21 14 16 17 11 12 17
18 18 19 20 20 20 21 20 20 22 19 17 15 11 16 6 15 21 23 23 11 7 9 7 14 13 3 2 7 4 2 8 6 15 16 8 26 25 21 12 16 16 11 10 15
18 17 18 20 21 22 22 22 27 26 22 16 10 8 15 9 10 19 15 13 15 11 6 9 6 7 4 10 7 3 13 13 18 10 6 9 13 21 8 8 12 13 13 11 14
18 18 18 20 20 20 20 25 26 14 5 8 10 2 9 9 7 7 11 19 7 8 5 8 5 6 5 7 16 12 9 16 19 3 11 16 14 22 19 8 11 16 19 12 13
21 18 17 18 20 19 13 8 6 1 1 9 7 9 6 12 5 5 6 14 8 4 12 10 9 21 20 20 12 13 12 18 17 5 7 9 10 17 19 9 16 16 17 13 12
21 22 21 18 17 16 4 1 4 4 13 13 22 24 30 12 11 7 14 9 9 18 10 7 27 16 12 14 16 11 9 18 14 11 5 12 15 16 17 14 16 21 14 11 3
20 19 20 20 17 5 3 6 7 8 8 12 16 12 15 14 13 10 8 7 6 14 23 26 17 15 19 14 17 17 19 18 20 6 7 11 12 17 18 8 10 8 5 6 11
20 19 18 18 6 3 5 0 8 9 5 10 7 8 9 12 14 16 8 8 6 20 17 18 23 17 21 21 19 19 18 19 17 8 9 4 7 6 8 11 7 9 7 9 8
19 18 16 12 7 6 5 9 13 2 6 3 5 2 1 16 2 13 19 8 12 8 13 16 19 26 18 29 20 19 12 12 8 8 5 15 4 6 4 10 11 11 9 9 7
18 17 15 6 3 8 7 11 1 3 10 7 4 12 1 12 18 8 13 9 8 7 11 20 9 19 27 10 17 8 3 3 6 1 8 21 5 9 6 9 6 6 6 4 7
20 18 13 6 5 2 5 4 0 7 6 3 12 19 12 14 12 15 13 20 17 11 15 8 21 4 10 20 10 11 7 3 4 4 7 8 6 16 10 10 12 11 5 8 8
20 19 8 7 3 2 1 1 8 6 10 13 19 17 9 21 12 10 11 16 26 16 12 13 11 27 11 19 13 22 16 8 7 5 5 6 8 13 9 12 10 9 7 9 9
17 4 4 4 6 2 2 4 5 3 8 15 16 9 9 15 10 12 12 6 15 17 9 13 15 2 22 9 19 12 17 12 4 1 2 4 8 9 3 1 2 6 8 9 9
6 5 4 4 6 3 1 5 4 6 12 13 8 6 15 12 13 15 6 13 7 19 1 2 2 9 14 18 17 10 10 9 4 5 3 5 5 8 3 2 3 6 8 7 7
3 4 3 3 3 1 2 5 6 8 10 5 6 10 14 8 5 15 8 7 18 14 10 3 3 5 10 15 23 7 15 3 8 6 7 2 8 9 9 9 11 9 8 11 12
2 4 3 2 1 1 1 3 5 10 9 8 7 12 12 6 4 7 10 13 11 16 8 7 5 10 12 4 18 24 19 20 9 9 2 5 13 5 8 10 9 9 8 7 8
4 3 3 2 2 1 4 6 7 12 9 3 5 6 10 9 6 4 8 15 13 16 14 9 6 1 4 5 4 15 23 15 6 4 6 7 8 3 5 7 11 10 8 9 9
3 4 4 3 2 1 4 5 4 7 10 5 7 7 9 9 8 7 13 10 16 16 16 5 5 12 18 4 5 5 17 17 14 10 10 11 5 3 3 7 7 7 8 11 12
3 3 2 4 3 7 3 5 7 7 3 5 4 4 8 7 8 8 10 13 6 12 9 3 5 8 17 21 11 4 11 20 21 20 16 15 10 7 8 10 15 9 8 10 11
2 2 2 6 6 5 5 3 7 10 6 6 2 7 9 7 7 12 10 5 3 9 9 6 6 10 10 15 23 23 8 16 20 14 11 8 9 8 7 9 7 11 13 14 15
2 2 1 5 6 3 4 4 10 13 8 10 8 9 12 12 6 10 8 8 8 6 8 3 4 11 8 13 9 17 28 15 9 13 15 10 10 8 4 11 13 11 14 17 17
Wind_Direction
339 339 338 329 318 312 320 323 323 325 328 326 325 332 334 331 317 272 252 221 188 190 136 128 213 196 115 176 173 145 104 248 237 183 247 256 3 234 278 245 317 215 168 237 139
338 335 332 328 327 323 319 313 310 316 321 324 325 329 330 331 301 252 230 226 214 162 166 172 169 181 193 193 186 167 172 229 225 207 244 294 309 290 327 301 269 279 269 147 147
336 336 334 332 331 329 325 318 307 305 308 312 320 330 329 332 325 256 211 229 233 179 193 172 154 161 211 170 202 189 221 233 268 247 207 274 288 285 281 286 274 265 241 168 159
333 328 327 330 328 325 323 320 318 302 304 308 317 326 321 292 239 238 126 187 237 187 183 157 177 174 209 208 205 246 231 239 246 267 274 258 274 277 279 267 276 273 223 166 169
327 329 329 324 319 320 318 316 313 314 304 303 306 314 343 247 235 262 271 75 86 163 180 187 173 178 204 203 175 220 246 248 261 272 271 273 265 263 280 279 277 268 195 189 186
324 320 320 320 321 316 314 310 303 302 304 299 300 299 225 249 248 258 276 284 264 178 172 166 198 212 218 238 239 225 254 260 258 261 259 265 274 278 271 274 276 248 222 197 195
332 329 321 315 313 313 308 301 302 300 298 296 297 286 251 241 278 315 320 234 209 221 206 202 220 198 182 313 260 251 271 278 261 260 259 280 279 268 273 264 258 266 234 215 207
327 328 325 324 317 309 307 306 297 291 286 282 284 273 257 264 242 259 259 271 246 260 234 225 212 230 182 304 344 359 286 264 234 240 256 174 265 268 267 261 260 262 259 211 220
325 323 322 322 318 314 307 305 298 284 276 264 264 231 269 278 218 240 214 227 233 230 228 242 151 187 109 222 271 262 258 267 279 219 251 177 278 274 266 224 259 266 260 217 233
324 322 319 318 317 313 310 312 297 296 244 218 232 228 249 236 236 215 186 206 202 186 194 191 179 181 166 160 212 218 237 247 251 198 220 252 259 278 281 289 263 269 269 228 222
325 323 319 316 318 315 326 339 5 42 297 220 217 251 307 14 291 213 165 169 174 203 183 177 195 209 201 209 216 228 233 247 258 213 232 239 252 274 282 287 279 276 264 234 228
322 322 322 320 317 314 0 260 257 337 294 255 252 245 268 289 298 281 137 144 178 199 166 182 228 208 207 209 218 233 245 255 282 264 246 275 268 270 283 276 271 267 256 242 104
319 317 319 320 319 335 181 237 282 317 270 275 227 234 219 199 231 245 188 160 174 194 196 203 221 195 206 212 216 224 229 247 251 301 226 278 282 278 279 287 277 246 214 174 186
318 316 320 322 332 304 255 240 321 285 288 273 218 248 200 188 246 221 210 174 202 203 198 229 219 181 204 223 211 231 221 241 256 277 270 115 288 295 279 289 285 266 217 233 200
317 315 315 326 288 279 276 334 321 177 307 239 201 198 245 195 40 224 196 220 205 166 171 203 196 221 222 218 204 238 224 244 255 257 301 270 266 254 267 287 265 268 235 231 187
312 317 318 312 217 256 316 296 248 209 247 306 85 351 303 223 250 313 167 214 158 220 235 221 199 205 223 202 212 233 229 288 265 227 252 264 160 275 227 225 264 261 294 117 130
314 307 304 278 244 152 334 349 176 224 302 14 349 335 327 336 201 242 216 189 186 183 210 187 229 222 174 217 208 192 110 277 315 198 220 233 179 239 257 245 246 249 165 138 130
315 309 271 235 218 248 44 80 222 251 269 352 345 325 16 11 343 264 235 200 206 194 170 190 212 210 187 201 189 209 185 174 199 183 214 179 236 252 242 258 231 238 143 127 137
327 340 293 269 186 136 133 214 228 303 10 347 337 355 345 1 343 345 233 270 226 194 176 200 232 216 197 188 182 198 205 178 0 280 73 209 285 322 268 306 206 149 142 155 150
334 326 283 323 127 115 118 258 275 322 339 347 325 5 334 342 338 340 315 359 277 223 55 278 160 215 206 199 211 157 155 183 188 226 219 265 254 233 257 198 192 158 163 135 133
33 348 302 122 82 113 217 245 302 302 315 311 327 308 308 321 345 327 311 27 22 353 343 267 146 300 154 202 194 161 231 153 156 184 174 180 257 211 213 186 190 214 176 164 162
20 350 290 28 16 354 273 241 301 291 301 280 236 264 279 286 284 291 291 337 32 2 7 279 206 243 216 281 186 200 204 211 196 212 208 161 257 227 209 190 169 197 178 153 166
345 277 305 109 282 274 274 263 252 285 286 264 297 297 279 299 300 248 284 315 333 359 346 327 279 214 280 274 187 203 203 199 204 93 210 153 259 249 215 195 189 175 163 154 161
10 342 322 33 142 301 311 274 270 273 294 257 285 276 291 301 252 259 278 294 316 336 328 323 268 235 220 194 171 166 197 196 191 208 216 231 261 213 147 163 169 165 173 163 167
24 287 329 311 335 303 260 275 309 325 276 277 290 236 276 300 318 261 280 291 303 326 360 25 268 273 259 238 273 212 175 199 204 208 195 230 203 215 191 188 200 160 140 146 159
43 327 340 282 307 304 301 298 295 316 291 288 223 309 328 280 248 287 313 334 7 301 330 356 286 328 258 234 230 252 257 204 205 208 218 175 218 200 190 97 142 177 163 175 178
272 266 195 296 304 301 250 333 305 303 276 248 275 310 290 276 310 285 228 211 206 223 278 258 333 352 276 223 221 249 238 238 221 200 187 179 214 149 134 174 180 179 186 183 182